Rbgn^[z[y[W
メイン
   新天体発見情報
     Comet C/2024 Q4 (PANSTARRS)
投稿するにはまず登録を

スレッド表示 | 古いものから 前のトピック | 次のトピック | 下へ
投稿者 スレッド
佐藤裕久
投稿日時: 2024-9-27 23:05
モデレータ
登録日: 2005-6-12
居住地: 日本
投稿: 2703
オンライン
Comet C/2024 Q4 (PANSTARRS)

R. Weryk (西オンタリオ大学,物理および天文学科)の通報によると、8月31日UT、HaleakalaのPan-
STARRS2 1.8-m Ritchey-Chretien反射望遠鏡で得た画像から彗星を発見した。
WerykとR. Wainscoatは、9月1日UT、0.9"のシーイングでMaunakeaの3.6-m Canada-France-Hawaii望
遠鏡で得た、3枚60秒のgri-バンドフォローアップ画像では、1".5(半値全幅:FWHM)の拡散した頭部が
見え、p.a.230-290°にわたる約5"の広い尾がある。
Werykは、9月4.62日、1".2のシーイングで得た、2枚60秒のw-バンドPan-STARRS2露出では、集光した
1".8(FWHM)の頭部が見え、p.a.260°に約3"のまっすぐな尾があると加えた。

彗星機能の報告は次のとおり、

OC   Date        Reporter           Coma    Tail    PA          Exposures
T14  2024-09-01  R. Weryk           0".6      5"    230-290        3x60s
F52  2024-09-04  R. Weryk           0".6      3"    260            2x60s

発見位置は次のとおり、

     2024 UT             R.A. (2000) Decl.       Mag.
     Aug. 31.60923    6 38 07.38   +25 39 51.8   21.1
          31.61450    6 38 07.62   +25 39 51.6   22.1
          31.61975    6 38 07.88   +25 39 51.8   21.3

MPCの楕円軌道要素、位置推算表は次のとおり、

Orbital elements:
    C/2024 Q4 (PANSTARRS)                                                       
Epoch 2024 Oct. 17.0 TT = JDT 2460600.5                                         
T 2024 Dec. 20.17660 TT                                 Rudenko                 
q   5.3253570            (2000.0)            P               Q                  
z  +0.0208424      Peri.  137.90033     -0.19691863     -0.97980276             
 +/-0.0547926      Node   323.41671     +0.88323901     -0.16188988             
e   0.8890065      Incl.    3.34542     +0.42557244     -0.11738064             
From 24 observations 2024 Aug. 31-Sept. 15, mean residual 0".3.                 
                                                                                
Ephemeris:
Date    TT    R. A. (2000) Decl.     Delta      r    Elong.  Phase   m1
2024 08 18    06 26 30.1 +25 47 06   6.0016  5.3962    49.3     8.2  21.2
...
2024 09 02    06 39 14.4 +25 39 03   5.7987  5.3803    60.9     9.4  21.1
...
2024 09 10    06 45 23.6 +25 34 09   5.6814  5.3726    67.2    10.0  21.1
...
2024 09 16    06 49 40.2 +25 30 24   5.5902  5.3672    72.1    10.3  21.0
2024 09 17    06 50 21.1 +25 29 46   5.5748  5.3663    72.9    10.3  21.0
2024 09 18    06 51 01.5 +25 29 09   5.5593  5.3654    73.7    10.4  21.0
...
2024 09 24    06 54 52.4 +25 25 30   5.4655  5.3605    78.7    10.6  21.0
...
2024 10 02    06 59 27.1 +25 20 58   5.3384  5.3543    85.5    10.7  20.9
...
2024 10 17    07 06 08.1 +25 14 18   5.1000  5.3444    98.8    10.6  20.8

(MPEC 2024-S10、CBET 5447)

スレッド表示 | 古いものから 前のトピック | 次のトピック | トップ

投稿するにはまず登録を
 
© 1999 Tsutomu Seki.